Cloud_Cover
100 100 100 100 100 100 100 100 100 100 100 100 100 100 100 100 100 100 100 100 100 83 85 100 100 100 100 89 100 100 78 76 4 0 0 0 0 0 0 0 0 0 0 1 0 0 0 0 0
95 100 97 100 100 100 100 100 100 100 100 99 100 100 100 98 100 100 100 100 100 100 100 90 100 100 100 74 94 96 35 16 100 100 13 0 0 0 0 0 0 0 0 6 0 0 0 0 0
97 73 100 100 100 100 100 100 100 100 100 100 100 100 100 100 100 100 100 100 100 86 100 100 100 100 100 98 100 98 50 12 69 66 36 5 0 4 0 0 0 1 7 0 0 0 0 0 0
100 71 100 100 100 100 100 100 100 97 93 58 100 100 100 100 100 100 100 100 100 100 100 100 100 100 100 100 100 100 79 21 5 5 5 0 0 0 0 0 0 0 0 0 0 0 0 0 0
99 100 100 100 100 100 100 100 100 100 100 100 100 100 100 100 100 100 100 100 100 100 100 100 100 100 100 100 99 63 32 19 21 11 5 3 2 5 3 0 0 0 0 0 0 0 0 0 0
100 100 100 100 100 100 100 100 100 100 100 100 100 100 100 88 94 100 100 100 100 99 100 100 100 100 100 100 4 4 6 4 2 2 1 0 0 0 0 0 0 0 0 0 0 0 0 0 0
100 100 100 100 100 100 100 100 100 86 88 100 100 100 100 97 100 86 90 100 100 100 97 100 98 100 98 99 64 14 100 98 6 5 5 2 4 0 2 0 0 0 0 0 0 0 0 0 0
100 100 100 100 97 100 100 96 98 7 62 100 82 100 100 100 100 94 35 10 77 81 92 97 94 100 100 100 100 83 3 1 5 12 5 3 1 23 82 89 0 0 0 0 0 0 0 0 3
98 100 100 16 100 100 56 64 100 100 72 100 100 99 72 73 74 12 2 0 0 1 5 4 5 13 30 49 94 100 98 77 0 2 0 0 0 22 60 74 2 0 0 0 0 4 2 0 0
100 60 10 63 89 100 22 83 95 100 100 99 100 99 100 40 5 76 98 52 46 12 49 39 5 29 12 2 17 8 10 80 93 57 48 32 29 42 1 0 1 43 39 7 5 4 4 3 0
100 36 0 0 55 100 15 5 95 100 100 100 100 100 96 30 59 92 88 98 100 96 69 98 78 54 22 75 65 5 5 5 5 6 13 99 92 93 95 12 14 37 4 47 100 96 94 73 9
90 27 0 3 52 64 57 95 6 30 100 100 95 68 75 98 96 100 100 100 99 47 98 97 93 97 100 100 85 74 45 13 4 5 5 0 0 1 7 61 72 100 100 74 11 7 59 66 99
0 0 44 4 52 97 24 77 5 5 65 100 80 100 100 100 100 100 100 100 100 67 79 56 5 8 12 32 5 4 0 0 0 0 0 0 0 0 0 0 3 11 95 100 100 100 86 90 28
0 0 2 3 2 66 5 37 35 5 6 60 92 48 77 52 96 99 75 17 5 5 37 35 64 82 4 0 0 0 0 0 0 0 0 0 0 0 0 0 0 3 5 44 100 100 100 100 100
0 0 0 98 5 32 18 10 100 35 74 74 56 21 92 71 65 19 43 100 100 100 100 100 9 0 0 0 0 0 0 0 0 0 0 0 0 0 0 0 0 0 0 2 5 85 100 100 100
0 4 0 0 5 58 32 41 55 100 100 100 100 100 100 100 100 100 100 100 77 22 0 0 0 0 0 0 0 0 0 0 0 0 0 0 0 0 0 0 0 0 0 0 0 3 49 97 100
5 4 5 3 0 30 77 100 96 100 100 100 100 99 85 50 42 0 0 0 0 0 0 0 0 0 0 0 0 0 0 0 0 0 0 0 0 0 0 0 0 0 0 0 0 0 0 1 11
0 5 5 5 1 0 0 0 0 0 0 0 0 0 0 0 0 0 0 0 0 0 0 0 0 0 0 0 0 0 0 0 0 0 0 0 0 0 0 0 0 0 0 0 0 0 0 0 1
0 0 2 6 15 3 0 0 0 0 0 0 0 0 0 0 0 0 0 0 0 0 0 0 0 0 0 0 0 0 0 0 0 0 0 0 0 0 0 0 0 0 0 0 0 0 0 0 0
2 1 2 0 0 4 0 0 0 4 5 5 4 1 5 5 5 5 5 5 4 0 0 0 0 0 0 0 0 0 0 0 0 0 0 0 0 0 0 0 0 0 0 0 0 0 0 0 0
23 5 0 1 0 5 3 0 0 0 0 0 5 5 5 5 5 5 5 5 5 5 4 0 0 0 0 0 0 0 0 0 0 0 0 0 0 0 0 0 0 0 0 0 0 0 0 0 0
9 19 3 5 3 0 5 5 0 0 0 0 0 0 0 0 0 0 2 1 0 0 0 0 0 0 0 0 0 0 0 0 2 0 0 0 0 5 5 0 0 0 0 0 0 0 0 0 0
99 83 40 5 5 5 5 5 0 0 0 0 0 2 2 0 5 3 0 0 1 2 9 43 56 5 2 0 0 0 0 0 0 1 0 5 1 4 0 0 0 0 0 0 0 0 0 0 0
100 100 80 7 5 5 12 5 21 0 0 5 5 5 3 1 6 25 5 1 79 100 100 100 100 53 5 5 0 1 0 0 0 2 5 5 0 5 5 1 0 0 0 0 0 0 0 2 0
100 100 100 63 13 5 5 5 44 5 0 3 6 5 5 3 3 53 99 100 100 100 100 100 98 35 5 11 5 5 5 3 3 4 4 5 2 4 5 5 2 0 0 0 0 0 0 4 7
100 100 100 100 69 7 2 5 31 5 0 0 5 8 5 17 3 5 15 97 100 98 100 100 10 5 5 5 5 5 5 5 5 9 5 99 5 5 5 5 5 5 0 0 0 0 0 2 6
100 100 100 100 86 14 100 58 86 5 5 5 2 5 5 8 5 96 100 100 61 100 100 100 13 13 27 12 9 5 6 6 16 85 11 48 16 5 5 5 5 5 0 0 4 24 11 5 5
100 100 100 100 100 100 100 29 5 100 17 17 44 17 2 5 17 31 32 100 100 100 100 98 100 100 100 47 6 6 100 100 100 100 49 21 5 8 50 5 5 5 4 4 0 0 2 4 4
100 100 100 100 100 100 100 100 100 36 92 100 100 100 76 100 100 100 100 100 100 100 100 100 100 100 100 96 7 88 100 100 100 98 46 34 57 99 66 45 14 5 5 2 3 4 4 5 8
100 100 100 100 100 100 100 100 100 79 67 100 100 100 100 100 100 100 100 100 100 100 100 100 100 100 100 100 91 100 100 100 100 100 6 10 98 100 80 45 38 5 0 3 2 4 5 4 11